Location: Prairie Dale
(45.6972°N, 104.5033°W)
Time: 15:37:57
(UTC+00:00)

ESTCUBE 1 - Pass Details

Date: 27 June 2022
Orbit: 646 x 657 km, 97.9° (Epoch: 07 August)

Event Time Altitude Azimuth Distance (km) Brightness Sun altitude
Exits shadow 05:05:31 28° 169° (S) 1,215 ? -16.2°
Maximum altitude 05:07:53 85° 257° (WSW) 655 ? -16.3°
Drops below altitude 10° 05:12:22 10° 346° (NNW) 2,058 ? -16.7°
Sets 05:14:36 0° 347° (NNW) 2,974 ? -16.9°
